sat.trackr.live / text

‹ back to catalog

STARLINK-35811

NORAD 66596 · 2025-270J

PAYLOAD ACTIVE UNKNOWN

§ Identity

Operator
Country
US
Launch date
2025-11-22
Launch site
AFETR
Launch vehicle
Mass (kg)
RCS (m²)

Purposes: comms

External: N2YO · Heavens-Above · Gunter

§ Orbital elements

Epoch: 2026-05-24T22:34:34.599936Z

Period
94.27 min
Inclination
43.0028°
Eccentricity
0.0001352
Mean motion
15.27593658 rev/d
Perigee alt
482.1 km
Apogee alt
483.9 km
Semi-major
6,861.1 km
B*
4.7657e-4
RAAN
345.8924°
Arg perigee
278.1192°
Mean anomaly
81.9506°
Rev number
2,947

§ Raw data

STARLINK-358111 66596U 25270J   26144.94067824  .00012880  00000+0  47657-3 0  99952 66596  43.0028 345.8924 0001352 278.1192  81.9506 15.27593658 29479

JSON: /api/v1/satellites/66596 · /tle

For live sub-satellite position, see the globe view (requires WebGL).

§ Visibility from observer

Set your observer location to see the next 7 days of passes ≥ 10°. The values pass through the URL so the page stays shareable.

No JS? Fill the form by hand. The geolocation button needs JavaScript.